When you browse on this site, cookies collect data to enhance your experience and personalize the content and advertising you see.
Visit our Privacy Policy to learn more. By continuing to use the site, you agree to this use of cookies and data.
  • In Hungary
  • List of Countries
  • For 7 days
  • Water Temperature
  • Weather Map
  • News
  • Weather Widgets
  • user-avatar
    Login

    Hourly Weather Tabasco

    Today, 20 November, Wednesday

    Time Temperature Precipitation Wind Pressure Humidity
    00:00 +20°C° 0 mm 1 mps 759 mmHg 90%
    01:00 +20°C° 0 mm 1 mps 759 mmHg 91%
    02:00 +20°C° 0 mm 1 mps 759 mmHg 92%
    03:00 +20°C° 0 mm 1 mps 759 mmHg 92%
    04:00 +20°C° 0 mm 1 mps 759 mmHg 93%
    05:00 +19°C° 0 mm 1 mps 759 mmHg 93%
    06:00 +19°C° 0 mm 1 mps 759 mmHg 94%
    07:00 +21°C° 0 mm 1 mps 760 mmHg 89%
    08:00 +22°C° 0 mm 1 mps 760 mmHg 84%
    09:00 +24°C° 0 mm 2 mps 761 mmHg 80%
    10:00 +25°C° 0 mm 2 mps 760 mmHg 77%
    11:00 +26°C° 0 mm 3 mps 760 mmHg 75%
    12:00 +27°C° 0 mm 3 mps 759 mmHg 72%
    13:00 +28°C° 0 mm 3 mps 758 mmHg 72%
    14:00 +28°C° 0 mm 3 mps 758 mmHg 73%
    15:00 +28°C° 0 mm 3 mps 757 mmHg 73%
    16:00 +27°C° 0 mm 3 mps 757 mmHg 78%
    17:00 +25°C° 0 mm 2 mps 757 mmHg 84%
    18:00 +24°C° 0 mm 2 mps 758 mmHg 89%
    19:00 +24°C° 0 mm 2 mps 758 mmHg 91%
    20:00 +23°C° 0 mm 1 mps 759 mmHg 92%
    21:00 +23°C° 0 mm 1 mps 759 mmHg 94%
    22:00 +22°C° 0 mm 1 mps 759 mmHg 94%
    23:00 +22°C° 0 mm 1 mps 759 mmHg 94%

    Tomorrow, 21 November, Thursday

    Time Temperature Precipitation Wind Pressure Humidity
    00:00 +21°C° 0 mm 1 mps 759 mmHg 95%
    01:00 +21°C° 0 mm 1 mps 759 mmHg 95%
    02:00 +21°C° 0 mm 1 mps 759 mmHg 95%
    03:00 +21°C° 0 mm 1 mps 759 mmHg 95%
    04:00 +21°C° 0 mm 1 mps 759 mmHg 95%
    05:00 +20°C° 0 mm 1 mps 759 mmHg 94%
    06:00 +20°C° 0 mm 1 mps 759 mmHg 94%
    07:00 +22°C° 0 mm 1 mps 760 mmHg 90%
    08:00 +23°C° 0 mm 1 mps 760 mmHg 86%
    09:00 +24°C° 0 mm 2 mps 760 mmHg 82%
    10:00 +26°C° 0 mm 2 mps 759 mmHg 78%
    11:00 +27°C° 0 mm 2 mps 759 mmHg 74%
    12:00 +28°C° 0 mm 3 mps 758 mmHg 71%
    13:00 +29°C° 0 mm 3 mps 758 mmHg 71%
    14:00 +29°C° 0 mm 3 mps 757 mmHg 71%
    15:00 +29°C° 0 mm 3 mps 756 mmHg 71%
    16:00 +28°C° 0 mm 2 mps 757 mmHg 77%
    17:00 +26°C° 0 mm 2 mps 757 mmHg 82%
    18:00 +25°C° 0 mm 2 mps 757 mmHg 88%
    19:00 +25°C° 0 mm 1 mps 758 mmHg 89%
    20:00 +24°C° 0 mm 1 mps 758 mmHg 91%
    21:00 +24°C° 0 mm 1 mps 759 mmHg 92%
    22:00 +23°C° 0 mm 1 mps 759 mmHg 93%
    23:00 +23°C° 0 mm 1 mps 759 mmHg 94%

    Day after tomorrow, 22 November, Friday

    Time Temperature Precipitation Wind Pressure Humidity
    00:00 +22°C° 0 mm 1 mps 758 mmHg 95%
    01:00 +22°C° 0 mm 1 mps 758 mmHg 95%
    02:00 +22°C° 0 mm 1 mps 758 mmHg 95%
    03:00 +20°C° 0 mm 0 mps 758 mmHg 95%
    04:00 +20°C° 0 mm 0 mps 758 mmHg 95%
    05:00 +20°C° 0 mm 0 mps 758 mmHg 95%
    06:00 +19°C° 0 mm 0 mps 758 mmHg 96%
    07:00 +21°C° 0 mm 0 mps 758 mmHg 91%
    08:00 +24°C° 0 mm 1 mps 759 mmHg 87%
    09:00 +26°C° 0 mm 1 mps 759 mmHg 83%
    10:00 +27°C° 0 mm 1 mps 758 mmHg 79%
    11:00 +28°C° 0 mm 1 mps 758 mmHg 75%
    12:00 +30°C° 0 mm 1 mps 757 mmHg 70%
    13:00 +30°C° 0 mm 1 mps 756 mmHg 70%
    14:00 +30°C° 0 mm 1 mps 756 mmHg 69%
    15:00 +30°C° 0 mm 1 mps 755 mmHg 68%
    16:00 +29°C° 0 mm 1 mps 755 mmHg 74%
    17:00 +28°C° 0 mm 1 mps 755 mmHg 81%
    18:00 +26°C° 0 mm 1 mps 756 mmHg 87%
    19:00 +26°C° 0 mm 1 mps 756 mmHg 89%
    20:00 +26°C° 0 mm 1 mps 757 mmHg 91%
    21:00 +25°C° 0 mm 1 mps 757 mmHg 92%
    22:00 +25°C° 0 mm 1 mps 757 mmHg 93%
    23:00 +25°C° 0 mm 1 mps 757 mmHg 94%

    23 November, Saturday

    Time Temperature Precipitation Wind Pressure Humidity
    00:00 +24°C° 0 mm 1 mps 757 mmHg 95%
    01:00 +24°C° 0 mm 1 mps 757 mmHg 95%
    02:00 +24°C° 0 mm 1 mps 756 mmHg 95%
    03:00 +23°C° 0 mm 1 mps 756 mmHg 95%
    04:00 +23°C° 0 mm 1 mps 756 mmHg 95%
    05:00 +23°C° 0 mm 1 mps 756 mmHg 96%
    06:00 +23°C° 0 mm 1 mps 757 mmHg 96%
    07:00 +22°C° 0 mm 0 mps 757 mmHg 92%
    08:00 +24°C° 0 mm 0 mps 757 mmHg 88%
    09:00 +25°C° 0 mm 0 mps 758 mmHg 83%
    10:00 +28°C° 0 mm 1 mps 758 mmHg 79%
    11:00 +30°C° 0 mm 1 mps 757 mmHg 76%
    12:00 +31°C° 0 mm 1 mps 757 mmHg 72%
    13:00 +31°C° 0 mm 1 mps 756 mmHg 71%
    14:00 +31°C° 0 mm 1 mps 756 mmHg 70%
    15:00 +32°C° 0 mm 1 mps 755 mmHg 69%
    16:00 +30°C° 0.1 mm 1 mps 755 mmHg 75%
    17:00 +29°C° 0.1 mm 1 mps 756 mmHg 81%
    18:00 +27°C° 0.1 mm 1 mps 756 mmHg 88%
    19:00 +27°C° 0 mm 1 mps 757 mmHg 90%
    20:00 +26°C° 0 mm 1 mps 757 mmHg 92%
    21:00 +26°C° 0 mm 1 mps 758 mmHg 94%
    22:00 +25°C° 0.1 mm 1 mps 758 mmHg 95%
    23:00 +25°C° 0.1 mm 1 mps 758 mmHg 96%

    24 November, Sunday

    Time Temperature Precipitation Wind Pressure Humidity
    00:00 +24°C° 0.1 mm 1 mps 758 mmHg 97%
    01:00 +25°C° 0.1 mm 1 mps 757 mmHg 96%
    02:00 +25°C° 0.1 mm 1 mps 757 mmHg 96%
    03:00 +25°C° 0.1 mm 1 mps 757 mmHg 96%
    04:00 +25°C° 0.3 mm 1 mps 757 mmHg 96%
    05:00 +25°C° 0.3 mm 1 mps 757 mmHg 96%
    06:00 +25°C° 0.3 mm 1 mps 757 mmHg 96%
    07:00 +26°C° 0.1 mm 1 mps 758 mmHg 93%
    08:00 +27°C° 0.1 mm 1 mps 758 mmHg 90%
    09:00 +28°C° 0.1 mm 1 mps 759 mmHg 87%
    10:00 +29°C° 0.3 mm 1 mps 759 mmHg 82%
    11:00 +30°C° 0.3 mm 1 mps 758 mmHg 76%
    12:00 +31°C° 0.3 mm 1 mps 758 mmHg 70%
    13:00 +31°C° 0.7 mm 1 mps 757 mmHg 72%
    14:00 +31°C° 0.7 mm 1 mps 756 mmHg 74%
    15:00 +30°C° 0.7 mm 1 mps 756 mmHg 76%
    16:00 +29°C° 1 mm 1 mps 756 mmHg 81%
    17:00 +27°C° 1 mm 1 mps 756 mmHg 86%
    18:00 +26°C° 1 mm 1 mps 757 mmHg 91%
    19:00 +26°C° 0.1 mm 1 mps 757 mmHg 92%
    20:00 +25°C° 0.1 mm 1 mps 757 mmHg 93%
    21:00 +25°C° 0.1 mm 1 mps 758 mmHg 94%
    22:00 +25°C° 0 mm 1 mps 758 mmHg 94%
    23:00 +24°C° 0 mm 1 mps 757 mmHg 95%

    25 November, Monday

    Time Temperature Precipitation Wind Pressure Humidity
    00:00 +24°C° 0 mm 1 mps 757 mmHg 96%
    01:00 +24°C° 0 mm 1 mps 756 mmHg 96%
    02:00 +24°C° 0 mm 1 mps 756 mmHg 96%
    03:00 +24°C° 0 mm 1 mps 756 mmHg 96%
    04:00 +21°C° 0 mm 0 mps 756 mmHg 96%
    05:00 +21°C° 0 mm 0 mps 756 mmHg 96%
    06:00 +21°C° 0 mm 0 mps 756 mmHg 97%
    07:00 +22°C° 0 mm 0 mps 756 mmHg 94%
    08:00 +23°C° 0 mm 0 mps 757 mmHg 91%
    09:00 +25°C° 0 mm 0 mps 757 mmHg 88%
    10:00 +28°C° 0 mm 1 mps 756 mmHg 84%
    11:00 +29°C° 0 mm 1 mps 756 mmHg 79%
    12:00 +30°C° 0 mm 2 mps 755 mmHg 74%
    13:00 +30°C° 0 mm 2 mps 754 mmHg 74%
    14:00 +30°C° 0 mm 2 mps 754 mmHg 74%
    15:00 +30°C° 0 mm 2 mps 753 mmHg 73%
    16:00 +29°C° 0 mm 1 mps 753 mmHg 78%
    17:00 +28°C° 0 mm 1 mps 753 mmHg 82%
    18:00 +27°C° 0 mm 1 mps 754 mmHg 86%
    19:00 +27°C° 0 mm 1 mps 754 mmHg 88%
    20:00 +26°C° 0 mm 1 mps 755 mmHg 90%
    21:00 +26°C° 0 mm 1 mps 755 mmHg 92%
    22:00 +25°C° 0 mm 1 mps 755 mmHg 93%
    23:00 +25°C° 0 mm 1 mps 755 mmHg 93%
    Show more